Location: Cache Creek Trail
(38.9257°N, 122.6211°W)
Time: 05:28:19
(UTC+00:00)

Daily predictions for brighter satellites

Satellite Brightness Start Highest point End
(mag) Time Altitude Azimuth Time Altitude Azimuth Time Altitude Azimuth
Cosmos 2278 Rocket 4.1 03:56:50 10° SW 04:02:03 37° WNW 04:07:19 10° N
Cosmos 1634 Rocket 4.1 03:57:32 10° N 04:03:55 81° E 04:10:14 10° S
ATLAS 2AS CENTAUR R/B 4.1 03:58:28 10° SSE 04:03:59 21° ESE 04:09:35 10° ENE
MetOp-A 4.3 03:59:35 10° SSE 04:04:50 60° ENE 04:10:07 10° N
STARLINK-1094 4.1 04:01:24 10° WNW 04:05:27 56° SW 04:09:30 10° SSE
CZ-2C R/B 3.7 04:03:54 10° NNE 04:08:25 64° ESE 04:13:00 10° S
STARLINK-1117 4.2 04:06:25 10° WNW 04:10:26 50° SW 04:14:27 10° SSE
GPS 2-04 Rocket1 3.3 04:08:04 10° W 04:11:09 32° SSW 04:14:19 10° SE
Cosmos 2221 Rocket 3.8 04:08:05 10° S 04:12:36 81° W 04:17:11 10° N
EXPRESS MD2 4.4 04:11:36 10° W 04:13:57 35° NNW 04:17:37 10° NE
FALCON 9 DEB 4.4 04:11:26 10° S 04:14:04 21° SE 04:16:41 10° E
Ariane Rocket 3.8 04:09:33 10° S 04:14:30 53° W 04:19:29 10° NNW
Okean 1 Rocket 4.4 04:11:49 10° NNE 04:15:22 23° ENE 04:18:48 10° SE
STARLINK-1078 4.4 04:11:25 10° WNW 04:15:23 45° SW 04:19:20 10° SSE
SL-4 R/B 2.3 04:11:10 10° SW 04:15:44 75° SE 04:20:32 10° NE
Cosmos 1741 Rocket 4.1 04:11:47 10° NNW 04:16:59 66° ENE 04:22:10 10° SSE
DMSP B5D2-2 4.1 04:13:15 10° NNE 04:18:34 85° ESE 04:23:49 10° SSW
Cosmos 1110 Rocket 4.0 04:13:33 10° S 04:18:38 60° ESE 04:23:44 10° NNE
STARLINK-1121 4.4 04:18:41 10° NW 04:22:40 44° NE 04:26:30 11° ESE
Cosmos 1850 Rocket 4.1 04:18:25 10° NNW 04:23:47 81° ENE 04:29:06 10° SSE
MOS 1 Rocket 3.7 04:20:33 10° N 04:24:47 59° WNW 04:28:59 10° SSW
STARLINK-60 3.7 04:22:28 10° WSW 04:25:35 57° NW 04:28:42 10° NE
Cosmos 1437 Rocket 2.6 04:23:41 10° S 04:27:28 88° E 04:31:19 10° N
Meteor 1-13 Rocket 4.4 04:22:00 10° S 04:27:39 83° W 04:33:27 10° N
Okean 2 Rocket 3.2 04:23:16 10° N 04:27:40 75° W 04:32:01 10° S
STARLINK-1106 4.2 04:23:39 10° NW 04:27:41 48° NE 04:31:18 12° ESE
Abrixas rocket 1.9 04:26:28 10° NW 04:29:24 83° NNE 04:31:38 16° ESE
ATLAS CENTAUR R/B 3.2 04:28:15 13° SE 04:29:36 14° ESE 04:31:58 10° ENE
Cosmos 1331 Rocket 3.9 04:25:59 10° S 04:31:05 71° ESE 04:36:16 10° NNE
ASTRO E2 4.2 04:28:15 10° WSW 04:31:22 22° S 04:33:40 14° SSE
STARLINK-1112 4.1 04:28:37 10° NW 04:32:40 53° NE 04:36:05 14° ESE
Resurs 01 Rocket 1.7 04:32:17 11° SSE 04:36:31 65° ENE 04:40:56 10° N
USA 245 4.5 04:36:23 13° E 04:37:05 14° ENE 04:38:28 10° NE
Cosmos 1300 Rocket 3.9 04:32:47 10° NNW 04:37:12 67° W 04:41:34 10° S
STARLINK-1128 4.0 04:33:33 10° NW 04:37:39 58° NE 04:40:51 16° ESE
Cosmos 304 Rocket 4.4 04:33:04 10° SSW 04:37:47 61° WNW 04:42:32 10° NNE
deb Kosmos-1763 4.0 04:34:12 10° NNW 04:37:48 70° ENE 04:40:34 16° SSE
CZ-2C R/B 3.2 04:33:39 10° N 04:39:15 67° WNW 04:44:46 10° SSW
STARLINK-1444 3.5 04:39:21 10° WSW 04:41:16 37° NW 04:43:12 10° NE
STARLINK-1452 3.5 04:39:58 10° WSW 04:41:53 36° NW 04:43:49 10° NNE
BREEZE-M DEB (TANK) 3.1 04:39:56 10° SSW 04:42:12 35° SE 04:46:55 10° ENE
STARLINK-1113 3.8 04:38:32 10° NW 04:42:39 63° NE 04:45:39 18° ESE
STARLINK-1450 3.6 04:41:12 10° WSW 04:43:03 33° NW 04:44:53 10° NNE
STARLINK-1392 3.6 04:41:21 10° WSW 04:43:11 33° NW 04:45:02 10° NNE
STARLINK-1399 3.6 04:41:22 10° WSW 04:43:12 33° NW 04:45:03 10° NNE
STARLINK-1415 3.6 04:41:22 10° WSW 04:43:12 33° NW 04:45:03 10° NNE
STARLINK-1394 3.6 04:41:23 10° WSW 04:43:14 33° NW 04:45:04 10° NNE
STARLINK-1395 3.6 04:41:23 10° WSW 04:43:14 33° NW 04:45:04 10° NNE
STARLINK-1436 (VISORSAT) 3.6 04:41:22 10° WSW 04:43:14 34° NW 04:45:06 10° NNE
STARLINK-1393 3.6 04:41:23 10° WSW 04:43:14 33° NW 04:45:04 10° NNE
STARLINK-1414 3.6 04:41:22 10° WSW 04:43:14 34° NW 04:45:06 10° NNE
STARLINK-1396 3.6 04:41:24 10° WSW 04:43:14 33° NW 04:45:05 10° NNE
STARLINK-1401 3.6 04:41:24 10° WSW 04:43:14 33° NW 04:45:05 10° NNE
STARLINK-1397 3.6 04:41:24 10° WSW 04:43:14 33° NW 04:45:05 10° NNE
STARLINK-1416 3.6 04:41:23 10° WSW 04:43:15 34° NW 04:45:08 10° NNE
STARLINK-1453 3.6 04:41:25 10° WSW 04:43:15 33° NW 04:45:06 10° NNE
STARLINK-1404 3.6 04:41:25 10° WSW 04:43:15 33° NW 04:45:06 10° NNE
STARLINK-1408 3.6 04:41:24 10° WSW 04:43:16 34° NW 04:45:09 10° NNE
STARLINK-1398 3.6 04:41:23 10° WSW 04:43:16 34° NW 04:45:09 10° NNE
STARLINK-1402 3.6 04:41:27 10° WSW 04:43:17 33° NW 04:45:08 10° NNE
STARLINK-1417 3.6 04:41:27 10° WSW 04:43:17 33° NW 04:45:08 10° NNE
STARLINK-1419 3.6 04:41:25 10° WSW 04:43:17 34° NW 04:45:11 10° NNE
STARLINK-1413 3.6 04:41:28 10° WSW 04:43:18 33° NW 04:45:09 10° NNE
STARLINK-1406 3.6 04:41:28 10° WSW 04:43:18 33° NW 04:45:09 10° NNE
SPOT 3 Rocket 3.8 04:38:12 10° S 04:43:20 69° WSW 04:48:30 10° NNW
STARLINK-1440 3.6 04:41:30 10° WSW 04:43:20 33° NW 04:45:11 10° NNE
STARLINK-1445 3.6 04:41:30 10° WSW 04:43:21 33° NW 04:45:12 10° NNE
STARLINK-1420 3.6 04:41:29 10° WSW 04:43:21 34° NW 04:45:14 10° NNE
STARLINK-1422 3.6 04:41:29 10° WSW 04:43:22 34° NW 04:45:15 10° NNE
STARLINK-1443 3.6 04:41:31 10° WSW 04:43:22 33° NW 04:45:12 10° NNE
STARLINK-1454 3.6 04:41:32 10° WSW 04:43:22 33° NW 04:45:13 10° NNE
STARLINK-1457 3.6 04:41:32 10° WSW 04:43:23 33° NW 04:45:13 10° NNE
STARLINK-1460 3.6 04:41:31 10° WSW 04:43:23 34° NW 04:45:16 10° NNE
STARLINK-1456 3.6 04:41:33 10° WSW 04:43:23 33° NW 04:45:14 10° NNE
STARLINK-1451 3.6 04:41:33 10° WSW 04:43:24 33° NW 04:45:14 10° NNE
STARLINK-1442 3.6 04:41:34 10° WSW 04:43:25 33° NW 04:45:15 10° NNE
STARLINK-1458 3.6 04:41:32 10° WSW 04:43:25 34° NW 04:45:18 10° NNE
STARLINK-1405 3.6 04:41:37 10° WSW 04:43:27 33° NW 04:45:18 10° NNE
STARLINK-1421 3.6 04:41:37 10° WSW 04:43:27 33° NW 04:45:18 10° NNE
STARLINK-1446 3.6 04:41:36 10° WSW 04:43:28 34° NW 04:45:21 10° NNE
STARLINK-1400 3.6 04:41:38 10° WSW 04:43:28 33° NW 04:45:19 10° NNE
STARLINK-1410 3.6 04:41:38 10° WSW 04:43:28 33° NW 04:45:19 10° NNE
STARLINK-1407 3.7 04:41:38 10° WSW 04:43:28 33° NW 04:45:19 10° NNE
STARLINK-1439 3.6 04:41:39 10° WSW 04:43:29 33° NW 04:45:20 10° NNE
STARLINK-1409 3.7 04:41:39 10° WSW 04:43:29 33° NW 04:45:20 10° NNE
STARLINK-1437 3.6 04:41:37 10° WSW 04:43:30 33° NW 04:45:22 10° NNE
STARLINK-1423 3.6 04:41:38 10° WSW 04:43:30 34° NW 04:45:23 10° NNE
STARLINK-1351 3.6 04:41:40 10° WSW 04:43:31 33° NW 04:45:21 10° NNE
STARLINK-1370 3.6 04:41:40 10° WSW 04:43:31 33° NW 04:45:21 10° NNE
STARLINK-1418 3.7 04:41:41 10° WSW 04:43:31 33° NW 04:45:22 10° NNE
Cosmos 2151 Rocket 3.8 04:38:59 10° NNW 04:43:31 74° W 04:48:00 10° S
STARLINK-1434 3.7 04:41:41 10° WSW 04:43:31 33° NW 04:45:22 10° NNE
STARLINK-1447 3.6 04:41:39 10° WSW 04:43:32 34° NW 04:45:25 10° NNE
STARLINK-1455 3.6 04:41:39 10° WSW 04:43:32 34° NW 04:45:25 10° NNE
STARLINK-1403 3.7 04:41:42 10° WSW 04:43:32 33° NW 04:45:23 10° NNE
STARLINK-1441 3.6 04:41:40 10° WSW 04:43:33 34° NW 04:45:26 10° NNE
STARLINK-1433 3.7 04:41:43 10° WSW 04:43:34 33° NW 04:45:24 10° NNE
STARLINK-1411 3.7 04:41:44 10° WSW 04:43:35 33° NW 04:45:25 10° NNE
STARLINK-1438 3.7 04:41:45 10° WSW 04:43:35 33° NW 04:45:25 10° NNE
STARLINK-1448 3.6 04:41:42 10° WSW 04:43:35 34° NW 04:45:28 10° NNE
STARLINK-1449 3.6 04:41:43 10° WSW 04:43:36 34° NW 04:45:29 10° NNE
STARLINK-1412 3.7 04:41:51 10° WSW 04:43:44 33° NW 04:45:37 10° NNE
Cosmos 1302 Rocket 4.3 04:39:48 10° S 04:44:50 47° ESE 04:49:55 10° NNE
Cosmos 1943 Rocket 2.1 04:40:29 10° S 04:45:56 64° ESE 04:51:28 10° NNE
STARLINK-1119 3.7 04:43:29 10° NW 04:47:38 70° NE 04:50:25 20° ESE
Resurs 1-3 4.1 04:45:42 10° S 04:50:01 58° W 04:54:21 10° NNW
H-2A R/B 4.4 04:46:43 10° SW 04:50:23 20° W 04:54:09 10° NW
Cosmos 1766 4.5 04:47:20 10° NNE 04:50:47 27° ENE 04:52:31 20° ESE
STARLINK-1114 3.6 04:48:28 10° NW 04:52:38 77° NE 04:55:13 22° SE
Aureole 2 4.1 04:53:14 10° NNW 04:56:11 75° WSW 04:57:46 24° S
Cosmos 1674 Rocket 4.1 04:52:13 10° SSW 04:56:31 60° W 05:00:54 10° N
Cosmos 1378 Rocket 3.6 04:52:10 10° S 04:56:33 82° W 05:00:57 10° N
STARLINK-1130 (DARKSAT) 3.6 04:53:26 10° NW 04:57:35 84° NE 04:59:59 24° SE
STARLINK-29 3.5 04:54:34 10° WSW 04:57:45 62° NW 05:00:57 10° NE
CENTAUR R/B 4.0 04:52:16 10° NNW 04:59:49 40° NE 05:06:36 15° ESE
STARLINK-1084 3.5 04:58:25 10° NW 05:02:34 88° SW 05:04:47 27° SE
Milstar 3 Cent rocket 4.1 04:55:47 10° SW 05:02:44 36° SSE 05:15:54 10° E
STARLINK-1371 4.3 05:05:40 28° SE 05:05:40 28° SE 05:08:52 10° ENE
Nadezhda 4 Rocket 3.9 05:00:17 10° S 05:06:25 88° E 05:12:34 10° N
Cosmos 1656 Rocket 4.4 05:04:04 21° SSE 05:06:46 32° ESE 05:11:39 10° NE
ATLAS 3B R/B 4.5 05:02:02 10° N 05:06:57 21° NE 05:11:59 10° E
STARLINK-1098 3.6 05:03:23 10° NW 05:07:32 80° SW 05:09:33 29° SE
STARLINK-1341 4.2 05:09:38 30° SE 05:09:38 30° SE 05:13:03 10° ENE
STARLINK-1123 3.6 05:08:22 10° NW 05:12:30 72° SW 05:14:20 32° SE
SL-8 R/B 3.6 05:07:42 10° WNW 05:12:32 83° SSW 05:15:03 28° SE
Cosmos 292 Rocket 3.9 05:09:17 19° S 05:12:35 52° ESE 05:17:18 10° NNE
STARLINK-1374 4.1 05:13:40 33° SE 05:13:40 33° SE 05:17:13 10° ENE
Cosmos 1378 3.1 05:12:05 17° SSW 05:14:50 79° W 05:18:33 10° N
Cosmos 2082 Rocket 4.0 05:11:42 10° NW 05:16:19 26° WSW 05:20:54 10° SSW
STARLINK-1097 3.7 05:13:22 10° NW 05:17:28 65° SW 05:19:07 34° SSE
STARLINK-1339 4.0 05:17:36 36° SE 05:17:49 36° SE 05:21:26 10° ENE
Cosmos 2369 Rocket 2.1 05:13:08 10° SSW 05:18:49 86° ESE 05:24:29 10° NNE
MetOp-B 4.2 05:16:07 20° S 05:19:53 78° WSW 05:25:16 10° NNW
NOSS 3-2 (C) 4.5 05:13:29 10° NNW 05:21:00 55° NE 05:26:32 22° ESE
ERS-1 Rocket 3.5 05:19:12 27° SE 05:21:27 44° ENE 05:26:13 10° N
Cosmos 1975 Rocket 3.1 05:19:47 29° SSE 05:21:54 61° E 05:26:15 10° NNE
STARLINK-1377 3.8 05:21:34 38° SSE 05:21:58 40° SE 05:25:39 10° ENE
STARLINK-1099 3.8 05:18:21 10° NW 05:22:25 59° SW 05:23:53 36° SSE
Cosmos 1805 3.1 05:20:03 10° N 05:23:59 85° E 05:25:31 36° S
STARLINK-1353 3.7 05:25:29 40° SSE 05:26:07 44° SE 05:29:52 10° ENE
NOSS 3-4 (A) 3.3 05:20:35 10° SSW 05:26:23 64° ESE 05:32:28 10° NE
NOSS 3-4 (C) 3.3 05:20:42 10° SSW 05:26:29 63° ESE 05:32:34 10° NE
STARLINK-1337 4.5 05:28:59 23° ENE 05:28:59 23° ENE 05:30:20 10° NE
STARLINK-1104 4.0 05:23:22 10° WNW 05:27:25 52° SW 05:28:41 37° S
STARLINK-1342 4.5 05:29:19 23° ENE 05:29:19 23° ENE 05:30:42 10° NE
STARLINK-1364 4.5 05:29:39 23° ENE 05:29:39 23° ENE 05:31:01 10° NE
STARLINK-1376 4.5 05:29:59 23° ENE 05:29:59 23° ENE 05:31:21 10° NE
Landsat 7 3.7 05:25:57 29° SSE 05:28:23 89° E 05:33:10 10° NNW
STARLINK-1360 4.4 05:30:17 24° ENE 05:30:17 24° ENE 05:31:42 10° NE
STARLINK-1361 4.5 05:30:39 24° ENE 05:30:39 24° ENE 05:32:03 10° NE
STARLINK-1367 4.4 05:30:52 25° ENE 05:30:52 25° ENE 05:32:22 10° NE
Cosmos 1470 4.2 05:26:18 10° NNE 05:29:22 22° ENE 05:29:36 22° E
STARLINK-1366 4.4 05:31:16 24° ENE 05:31:16 24° ENE 05:32:43 10° NE
STARLINK-1375 3.6 05:29:31 41° S 05:30:18 48° SE 05:34:06 10° ENE
STARLINK-1144 4.1 05:28:22 10° WNW 05:32:21 47° SW 05:33:28 37° S
SAR-Lupe-2 4.0 05:29:15 10° N 05:32:48 59° WNW 05:34:57 22° SSW
STARLINK-1350 3.5 05:33:29 40° S 05:34:28 53° SE 05:38:18 10° ENE
SWAS 4.4 05:30:11 10° NNW 05:34:30 79° WSW 05:35:58 41° SSE
Cosmos 968 Rocket 4.1 05:31:16 10° N 05:36:08 42° ENE 05:37:51 31° ESE
Cosmos 1842 3.1 05:36:05 44° S 05:37:14 81° E 05:41:08 10° N
Cosmos 1733 3.0 05:33:26 10° N 05:37:14 80° E 05:38:02 53° SSE
STARLINK-1103 4.3 05:33:23 10° WNW 05:37:18 42° SW 05:38:14 36° SSW
STARLINK-1352 3.4 05:37:31 38° SSW 05:38:43 58° SE 05:42:36 10° NE
STARLINK-1101 4.4 05:38:24 10° WNW 05:42:15 38° SW 05:43:01 35° SSW
STARLINK-1368 3.3 05:41:33 36° SSW 05:42:59 64° SE 05:46:53 10° NE
STARLINK-1369 3.3 05:45:36 32° SSW 05:47:15 71° SE 05:51:11 10° NE
BREEZE-M DEB (TANK) 3.5 05:36:29 10° SW 05:49:03 53° SE 05:53:03 10° ENE
Cosmos 1953 4.2 05:47:54 10° NNE 05:50:26 18° ENE 05:50:26 18° ENE
STARLINK-1372 3.3 05:49:38 29° SW 05:51:33 78° SE 05:55:29 10° NE
Cosmos 1271 Rocket 2.8 05:51:50 56° E 05:51:50 56° E 05:55:43 10° NNE
ATLAS 3B CENTAUR R/B 3.7 05:38:03 10° W 05:53:10 44° SSW 05:56:32 33° SSE
ATLAS 2AS CENTAUR R/B 3.1 05:46:13 10° SW 05:54:09 82° WNW 06:02:11 10° NNE
Cosmos 1455 Rocket 2.9 05:50:12 10° N 05:54:32 80° E 05:55:19 59° SSE
STARLINK-1378 3.3 05:53:38 25° SW 05:55:49 85° SE 05:59:46 10° NE
SL-4 R/B 4.4 05:51:45 10° W 05:55:53 29° NNW 06:00:06 10° NE
Cosmos 1092 Rocket 4.4 05:51:41 15° SSW 05:56:44 59° W 06:02:49 10° N
STARLINK-1235 3.9 05:53:50 10° NW 05:57:08 43° NE 05:57:16 42° NE
SL-27 R/B 2.7 05:54:19 10° NNW 05:57:48 57° WSW 05:57:55 57° WSW
Spot 2 Rocket 4.5 05:55:53 23° SSW 05:58:32 39° W 06:03:16 10° NNW
NOSS 3-2 (A) 4.3 05:51:40 10° NW 05:59:24 67° WSW 06:03:41 32° S
COSMOS 2455 2.7 05:56:28 29° S 05:59:36 70° ESE 06:05:36 10° NNE
STARLINK-1379 3.4 05:57:42 22° SW 06:00:09 88° NW 06:04:07 10° NE
CARTOSAT-1 3.6 06:00:05 54° S 06:00:59 76° W 06:05:19 10° NNW
COSMOS 2487 4.3 05:58:57 10° NNE 06:01:15 21° NE 06:01:15 21° NE
Cosmos 1707 3.1 06:03:58 50° ENE 06:03:58 50° ENE 06:07:20 10° NNE
STARLINK-1329 3.4 06:00:55 20° SW 06:03:36 82° NW 06:07:34 10° NE
SPOT 5 3.1 06:04:51 45° S 06:06:32 79° WSW 06:11:55 10° NNW
STARLINK-1362 3.6 06:04:32 13° SW 06:08:03 76° NW 06:12:03 10° NE
ATLAS CENTAUR R/B 2.1 06:04:12 12° SW 06:08:09 54° WNW 06:12:17 10° NNE
Cosmos 1758 3.4 06:05:15 10° N 06:09:14 61° ENE 06:09:14 61° ENE
STARLINK-1373 3.7 06:09:15 16° WSW 06:12:23 69° NW 06:16:21 10° NE
Cosmos 1242 Rocket 3.4 06:12:37 40° WSW 06:13:12 44° WNW 06:16:45 10° N
Resurs 01 Rocket 4.4 06:12:29 10° WSW 06:13:24 11° W 06:14:19 10° WNW
Terra 1.7 06:12:47 62° SSE 06:13:36 89° ENE 06:18:24 10° NNW
USA 238 DEB 4.3 06:06:50 10° NW 06:13:52 53° WSW 06:16:55 34° S
USA 238 4.3 06:06:55 10° NW 06:13:58 53° WSW 06:17:02 34° S
Meteor 2-10 4.3 06:11:11 10° N 06:16:03 46° ENE 06:16:35 44° E
STARLINK-1212 4.3 06:13:05 10° NW 06:15:18 37° NNW 06:15:18 37° NNW
STARLINK-1105 4.3 06:13:35 10° NW 06:15:49 37° NNW 06:15:49 37° NNW
STARLINK-1390 3.9 06:13:24 14° WSW 06:16:48 64° NW 06:20:45 10° NE
Cosmos 1503 Rocket 4.0 06:12:10 10° NNW 06:17:32 73° ENE 06:18:32 57° SE
STARLINK-1247 4.3 06:14:35 10° NW 06:16:47 37° NNW 06:16:47 37° NNW
STARLINK-1227 4.4 06:15:04 10° NW 06:17:13 37° NNW 06:17:13 37° NNW
STARLINK-1226 4.4 06:16:02 10° NW 06:18:10 36° NNW 06:18:10 36° NNW
STARLINK-1215 4.4 06:17:06 10° NW 06:19:14 37° NNW 06:19:14 37° NNW
STARLINK-1365 4.1 06:17:17 10° WSW 06:21:15 57° NW 06:25:13 10° NE
Cosmos 1536 Rocket 3.4 06:21:52 80° E 06:21:52 80° E 06:26:15 10° N
STARLINK-1217 4.4 06:19:07 10° NW 06:21:11 36° NNW 06:21:11 36° NNW
STARLINK-1270 4.5 06:21:12 10° NW 06:23:15 35° NNW 06:23:15 35° NNW
Cosmos 2084 3.4 06:28:27 83° NE 06:28:27 83° NE 06:32:45 10° NE
SeaSat 1 3.8 06:26:57 10° NE 06:29:54 26° E 06:29:54 26° E
Cosmos 1544 Rocket 3.9 06:27:40 10° NNW 06:31:54 53° W 06:32:12 52° WSW
S3M 3.9 06:32:17 10° N 06:38:32 81° E 06:39:53 57° SSE
Cosmos 1354 Rocket 3.9 06:34:15 10° NNW 06:39:34 81° WSW 06:40:09 70° S
Cosmos 1833 4.2 06:34:42 10° NNW 06:40:18 66° WSW 06:41:08 57° SSW
BREEZE-M DEB (TANK) 3.8 06:35:57 10° WNW 06:46:38 65° NNE 06:47:33 51° ENE
Meteor 2-8 Rocket 4.4 06:40:41 10° N 06:46:52 84° W 06:48:06 60° S
Cosmos 1553 Rocket 4.2 06:43:11 10° NNW 06:49:17 60° W 06:50:52 46° SW
CENTAUR R/B 3.5 06:42:49 10° NW 06:50:57 57° WSW 06:53:47 42° S
Meteor 1-16 Rocket 3.9 06:52:17 10° N 06:57:42 83° E 06:57:56 80° SE
Spot 4 4.1 06:57:59 60° ENE 06:57:59 60° ENE 07:02:39 10° N
ATLAS 3B R/B 2.6 06:51:43 10° NNW 06:58:36 85° ENE 07:00:14 57° SE
Cosmos 1025 Rocket 4.4 06:58:55 30° W 06:59:26 31° WNW 07:03:17 10° NNW
ALOS 2 4.0 07:00:41 29° ENE 07:00:41 29° ENE 07:04:06 10° N
Cosmos 1674 4.0 07:05:25 37° NNE 07:05:25 37° NNE 07:07:49 10° N
Cosmos 1726 3.5 07:01:41 10° NNW 07:04:12 38° NW 07:04:12 38° NW
Cosmos 2266 Rocket 4.0 07:06:50 57° SW 07:07:59 71° W 07:14:01 10° N
Cosmos 2098 Rocket 4.3 07:08:10 58° S 07:09:51 82° E 07:17:20 10° N
Cosmos 2227 Rocket 4.0 07:05:56 10° N 07:10:17 22° NE 07:12:15 18° E
Cosmos 1340 Rocket 3.9 07:08:44 10° NNW 07:11:48 42° NW 07:11:48 42° NW
Exosat Rocket 4.1 07:07:45 10° NNW 07:15:58 74° WSW 07:16:59 62° SSW
RESURS DK-1 3.7 07:20:07 35° WNW 07:20:07 35° WNW 07:23:55 10° N
Cosmos 921 Rocket 3.8 07:21:53 46° NNE 07:21:53 46° NNE 07:25:02 10° NNE
Cosmos 2228 3.7 07:19:23 10° N 07:22:34 50° N 07:22:34 50° N
Meteor 2-5 Rocket 3.6 07:24:06 80° E 07:24:06 80° E 07:29:44 10° NNE
Lacrosse 4 Rocket 4.1 07:25:21 10° NNE 07:26:58 12° NE 07:28:19 11° ENE
Cosmos 1953 4.1 07:23:37 10° NNW 07:26:08 25° WNW 07:26:08 25° WNW
Meteor 2-21 4.4 07:27:49 67° ESE 07:28:09 68° E 07:34:19 10° NNE
Cosmos 1244 Rocket 4.4 07:30:39 67° ESE 07:30:59 68° E 07:37:06 10° NNE
Okean 1-7 Rocket 4.4 07:33:04 49° NNE 07:33:04 49° NNE 07:36:31 10° NNE
Cosmos 1626 4.0 07:35:29 28° NNE 07:35:29 28° NNE 07:37:21 10° NNE
Cosmos 1777 Rocket 4.2 07:33:00 10° NNW 07:37:45 63° WNW 07:37:45 63° WNW
Cosmos 1892 Rocket 4.3 07:40:08 51° N 07:40:08 51° N 07:43:27 10° N
Helios 1A 4.3 07:41:24 35° NE 07:41:24 35° NE 07:44:26 10° N
Cosmos 1726 Rocket 4.3 07:37:10 10° N 07:40:22 49° NNW 07:40:22 49° NNW
CZ-4C R/B 2.7 07:45:19 44° ENE 07:45:19 44° ENE 07:49:32 10° NE
SJ 16-02 2.9 07:46:19 10° N 07:49:50 30° NE 07:49:50 30° NE
SL-08 R/B 4.5 07:50:15 67° ESE 07:50:38 69° E 07:56:56 10° NNE
Cosmos 1980 Rocket 3.9 07:54:20 20° E 07:54:20 20° E 07:57:31 10° NE
Meteor 2-14 Rocket 4.3 07:55:28 75° SW 07:55:51 79° W 08:02:02 10° N
Meteor 2-21 Rocket 4.3 07:58:49 81° SSW 07:59:10 88° WNW 08:05:23 10° N
Cosmos 2369 4.3 08:02:55 43° E 08:02:55 43° E 08:07:34 10° NE
ATLAS CENTAUR R/B 4.1 08:01:50 10° N 08:02:52 18° NNE 08:02:52 18° NNE
Meteor 1-24 Rocket 3.9 08:07:36 55° WNW 08:07:36 55° WNW 08:12:59 10° N
SeaSat 1 3.7 08:04:21 10° N 08:08:45 34° NW 08:09:40 31° WNW
Timation 2 Rocket 4.4 08:04:38 10° NW 08:10:06 44° W 08:10:06 44° W
Cosmos 468 Rocket 4.2 08:13:10 65° NE 08:13:10 65° NE 08:17:36 10° NNE
Cosmos 1656 3.7 08:15:17 69° WNW 08:15:23 69° WNW 08:21:00 10° NNE
Cosmos 2297 Rocket 2.1 08:11:22 10° NNW 08:16:56 84° NE 08:16:56 84° NE
Cosmos 2219 3.2 08:14:16 10° NNW 08:19:29 70° WNW 08:19:29 70° WNW
Cosmos 1626 Rocket 4.4 08:23:38 47° N 08:23:38 47° N 08:26:49 10° N
Cosmos 1709 Rocket 4.4 08:23:15 47° ESE 08:23:43 48° E 08:29:35 10° NNE
Cosmos 1937 Rocket 4.3 08:20:15 10° N 08:25:17 43° ENE 08:25:47 42° E
USA 215 3.9 08:22:46 14° ESE 08:28:18 53° NE 08:34:37 10° NW
Cosmos 2082 4.1 08:25:24 10° NNW 08:30:56 54° ENE 08:31:40 50° E
Cosmos 1898 Rocket 3.6 08:27:47 10° NNW 08:32:58 72° NE 08:32:58 72° NE
Meteor 2-1 Rocket 4.1 08:28:36 10° N 08:34:11 76° E 08:34:14 75° E
Cosmos 2278 3.8 08:39:07 63° E 08:39:07 63° E 08:44:29 10° NNE
Cosmos 1697 Rocket 2.6 08:39:12 81° WNW 08:39:15 81° WNW 08:44:57 10° NNE
Nadezhda 1 Rocket 3.9 08:37:17 10° N 08:43:31 74° W 08:43:59 71° SW
Cosmos 990 Rocket 4.0 08:39:34 10° NNW 08:44:22 74° NW 08:44:22 74° NW
Cosmos 1814 Rocket 4.3 08:47:07 59° E 08:47:07 59° E 08:52:01 10° NNE
Cosmos 2285 Rocket 4.4 08:40:36 10° N 08:46:52 57° ENE 08:48:31 44° ESE
Helios 1B rocket 3.4 08:44:12 10° N 08:47:12 46° N 08:47:12 46° N
ATLAS 3B R/B 4.5 08:44:21 10° WNW 08:47:28 16° W 08:47:28 16° W
Cosmos 858 Rocket 4.5 08:47:01 10° NNW 08:52:17 78° ENE 08:52:17 78° ENE
Resurs 1-4 Rocket 3.6 08:49:19 10° NE 08:53:33 24° E 08:54:06 23° ESE
Cosmos 1812 Rocket 4.3 08:49:30 10° NNW 08:52:49 49° NNW 08:52:49 49° NNW
Cosmos 2227 Rocket 2.5 08:49:08 10° NNW 08:54:02 52° W 08:54:02 52° W
Cosmos 1825 Rocket 4.2 08:57:30 52° NE 08:57:30 52° NE 09:00:57 10° NNE
Cosmos 841 Rocket 3.4 08:58:06 83° NNE 08:58:06 83° NNE 09:03:07 10° NNE
Cosmos 1570 Rocket 4.0 09:01:12 74° WNW 09:01:12 74° WNW 09:06:27 10° NNE
PSLV R/B 4.5 09:00:18 10° N 09:03:49 43° NW 09:03:49 43° NW
Cosmos 1763 Rocket 4.3 09:05:57 38° WNW 09:06:05 39° WNW 09:10:50 10° N
Lacrosse 4 Rocket 2.6 09:01:57 10° NNW 09:04:36 36° NW 09:04:36 36° NW
SL-16 R/B 3.6 09:05:59 24° ESE 09:06:37 25° ESE 09:11:06 10° NE
Cosmos 1703 4.3 09:12:24 44° N 09:12:24 44° N 09:15:11 10° N
Cosmos 1455 3.7 09:08:55 10° NNW 09:11:04 32° NNW 09:11:04 32° NNW
Uosat 12 SS-18 rocket 4.4 09:09:45 10° NNW 09:13:33 65° N 09:13:33 65° N
Cosmos 2208 Rocket 4.1 09:19:06 61° W 09:19:19 61° WNW 09:24:37 10° NNE
FALCON 9 R/B 3.0 09:20:20 52° SSW 09:21:18 56° S 09:38:12 10° ESE
CZ-2D R/B 2.7 09:17:31 10° NNE 09:22:28 42° E 09:23:08 40° ESE
DELTA 2 DEB (DPAF) 4.4 09:23:37 61° E 09:23:43 61° ENE 09:28:08 10° N
USA 81 4.4 09:24:19 51° W 09:24:20 51° W 09:29:30 10° N
Meteor 2-10 Rocket 3.9 09:20:45 10° NNW 09:25:10 47° WNW 09:25:10 47° WNW
SJ 16-02 3.4 09:25:13 10° NW 09:26:48 17° WNW 09:26:48 17° WNW
Cosmos 2360 Rocket 4.3 09:28:00 13° ESE 09:29:57 16° E 09:33:08 10° ENE
CZ-4C R/B 3.9 09:30:27 16° WNW 09:33:03 23° NW 09:37:40 10° NNE
Cosmos 2184 Rocket 4.1 09:33:27 48° SSE 09:35:04 67° E 09:41:11 10° NNE
Cosmos 1980 Rocket 2.6 09:36:05 46° W 09:36:59 50° WNW 09:42:30 10° NNE
STARLINK-64 4.5 09:38:08 41° NNE 09:38:08 41° NNE 09:40:39 10° NE
STARLINK-1288 4.3 09:39:04 49° E 09:39:04 49° E 09:42:17 10° NE
MOZ.5/SAFIR/RUBIN 5/SL-8 3.7 09:41:21 73° SE 09:41:43 79° ENE 09:46:22 10° N
STARLINK-1308 4.0 09:43:53 57° ENE 09:43:53 57° ENE 09:47:19 10° NE
Gblst 52 Del rocket 4.5 09:41:38 51° WSW 09:43:24 84° NW 09:50:27 10° NE
Cosmos 540 Rocket 4.3 09:42:52 35° W 09:43:26 36° WNW 09:48:10 10° N
Meteor 1-11 4.1 09:43:19 63° SW 09:44:09 75° W 09:49:45 10° N
BREEZE M DEB (TANK) 3.3 09:46:53 52° E 09:46:53 52° E 09:51:53 10° ESE
Timation 1 Rocket 4.3 09:40:28 10° NNW 09:46:29 82° ENE 09:48:53 38° SSE
STARLINK-61 4.4 09:47:33 41° E 09:47:33 41° E 09:50:26 10° ENE
Cosmos 2084 Rocket 3.8 09:43:08 10° NW 09:46:51 58° WNW 09:46:51 58° WNW
Cosmos 1400 Rocket 3.1 09:45:13 10° NNW 09:48:51 65° NW 09:48:51 65° NW
STARLINK-1304 3.6 09:53:25 76° ENE 09:53:25 76° ENE 09:57:16 10° NE
STARLINK-1278 3.6 09:54:58 77° NW 09:54:58 77° NW 09:59:13 10° NE
STARLINK-1280 3.7 09:56:44 75° NW 09:56:48 75° NW 10:01:04 10° NE
Cosmos 2263 Rocket 2.4 09:52:28 10° NNW 09:58:02 65° ENE 10:01:31 23° SE
Cosmos 2181 Rocket 4.3 09:51:56 10° NNW 09:58:08 50° W 09:59:30 43° SW
NOSS 2-1 (E) 3.5 09:59:04 56° NE 09:59:04 56° NE 10:01:55 10° NE
Cosmos 2297 Rocket 4.4 09:58:32 10° WNW 09:58:43 10° W 09:58:43 10° W
CZ-4B R/B 3.6 09:58:25 10° NNE 10:03:42 76° ESE 10:05:08 49° S
ADEOS II 3.1 09:59:03 10° NNE 10:03:57 39° E 10:06:13 26° SSE
GP-B 3.4 10:01:40 10° N 10:05:57 50° W 10:06:01 50° W
Cosmos 2221 2.9 10:02:33 10° N 10:06:54 61° E 10:08:05 43° SE
NPP 3.6 10:02:32 10° NNE 10:07:56 83° WNW 10:09:24 50° SSW
Meteor 2-17 Rocket 4.4 10:06:34 44° S 10:08:41 87° W 10:14:50 10° N
STARLINK-1286 3.7 10:08:20 63° WNW 10:08:42 67° NW 10:12:51 10° NE
Cosmos 2154 Rocket 4.0 10:06:42 39° S 10:09:14 80° E 10:15:28 10° N
Cosmos 1842 Rocket 3.5 10:06:29 10° N 10:10:59 85° E 10:11:49 58° SSE
USA 215 3.5 10:10:02 40° SSW 10:11:20 44° SW 10:17:33 10° WNW
IRS-1D 3.9 10:06:10 10° NNE 10:11:23 60° ESE 10:13:13 37° SSE
SL-16 R/B 2.4 10:09:41 40° S 10:12:01 71° WSW 10:18:13 10° NNW
STARLINK-1281 3.7 10:12:34 58° WNW 10:13:02 64° NW 10:17:10 10° NE
Iridium 2 3.5 10:10:29 10° N 10:14:16 83° E 10:14:26 79° SE
Cosmos 2322 Rocket 2.1 10:13:24 45° S 10:15:10 80° ESE 10:20:48 10° NNE
STARLINK-39 4.4 10:17:16 32° ESE 10:17:16 32° ESE 10:20:07 10° ENE
CZ-4C R/B 3.9 10:17:11 48° W 10:17:11 48° W 10:21:26 10° NNW
In-Cosmos 22 Rocket 4.3 10:15:01 36° S 10:17:19 70° E 10:22:47 10° NNE
STARLINK-1310 3.9 10:17:19 50° W 10:18:01 58° NW 10:22:06 10° NE
STARLINK-31 4.3 10:18:46 34° ESE 10:18:46 34° ESE 10:21:41 10° ENE
ARIANE 5 R/B 3.9 10:14:36 10° NE 10:19:01 31° E 10:22:00 17° SSE
STARLINK-69 4.1 10:20:26 39° ESE 10:20:26 39° ESE 10:23:30 10° ENE
STARLINK-21 4.1 10:21:53 38° ESE 10:21:53 38° ESE 10:24:57 10° ENE
STARLINK-1319 4.1 10:22:06 43° W 10:22:59 53° NW 10:27:03 10° NE
STARLINK-45 3.8 10:23:38 45° ESE 10:23:38 45° ESE 10:26:53 10° ENE
Cosmos 1315 Rocket 2.6 10:20:11 10° N 10:24:08 87° W 10:24:44 63° S
STARLINK-70 3.8 10:24:50 44° SE 10:24:50 44° SE 10:28:04 10° ENE
Cosmos 2058 2.9 10:24:58 53° S 10:25:55 82° E 10:30:08 10° N
STARLINK-76 3.8 10:26:45 44° SE 10:26:45 44° SE 10:30:06 10° ENE
UNK 4.0 10:26:37 45° WSW 10:27:01 46° W 10:31:26 10° NNW
AQUA 3.9 10:22:27 10° N 10:27:10 64° WNW 10:28:26 45° SW
STARLINK-1277 4.2 10:26:53 38° W 10:27:59 48° NW 10:32:01 10° NE
STARLINK-23 3.8 10:28:06 45° SE 10:28:06 45° SE 10:31:28 10° ENE
STARLINK-1010 4.4 10:28:24 36° SSE 10:29:00 38° SE 10:32:56 10° ENE
Cosmos 2150 Rocket 4.4 10:24:35 10° NNW 10:29:24 41° WSW 10:30:00 39° WSW
STARLINK-32 3.7 10:29:33 47° SE 10:29:33 47° SE 10:32:58 10° ENE
STARLINK-1021 4.4 10:29:51 35° SSE 10:30:24 36° SE 10:34:14 10° ENE
STARLINK-40 3.6 10:31:18 49° SE 10:31:22 49° SE 10:34:50 10° ENE
STARLINK-44 3.5 10:32:40 51° SE 10:32:46 51° SE 10:36:14 10° ENE
STARLINK-1276 4.4 10:31:41 33° W 10:33:00 45° NW 10:36:59 10° NE
Resurs 1-4 Rocket 2.8 10:28:32 10° N 10:33:28 40° WNW 10:35:11 31° WSW
STARLINK-37 3.3 10:34:38 58° SSE 10:34:51 59° SE 10:38:23 10° NE
STARLINK-1019 4.3 10:34:35 37° SSE 10:35:19 40° SE 10:39:13 10° ENE
STARLINK-36 3.4 10:35:38 54° SSE 10:35:50 55° SE 10:39:18 10° ENE
Nadezhda 3 Rocket 4.0 10:32:15 10° N 10:38:34 74° W 10:42:28 25° S
Cosmos 2237 4.4 10:36:22 30° S 10:39:13 68° ESE 10:44:55 10° NNE
STARLINK-63 3.2 10:39:12 59° S 10:39:35 65° SE 10:43:07 10° NE
Meteor 2-2 Rocket 4.3 10:33:50 10° NNW 10:39:51 73° W 10:43:23 25° S
STARLINK-1012 4.2 10:39:23 38° S 10:40:17 45° SE 10:44:15 10° ENE
STARLINK-35 3.2 10:40:40 57° S 10:41:05 64° SE 10:44:38 10° NE
STARLINK-51 3.2 10:42:15 57° S 10:42:44 67° SE 10:46:17 10° NE
STARLINK-30 3.2 10:43:48 57° S 10:44:20 69° SE 10:47:54 10° NE
GEOS 3 Rocket 3.5 10:39:39 10° SE 10:44:48 89° SW 10:50:07 10° NW
Cosmos 1125 Rocket 3.7 10:39:58 10° NNW 10:44:58 50° WSW 10:46:59 32° SSW
STARLINK-72 3.2 10:45:21 56° SSW 10:45:57 73° SE 10:49:31 10° NE
STARLINK-59 3.1 10:48:30 54° SW 10:49:14 83° SE 10:52:49 10° NE
STARLINK-1026 3.9 10:48:56 38° S 10:50:12 56° SE 10:54:16 10° ENE
SL-16 R/B 2.8 10:47:50 27° WSW 10:50:24 43° WNW 10:55:49 10° N
STARLINK-56 3.1 10:49:57 52° SW 10:50:43 81° SE 10:54:17 10° NE
STARLINK-71 3.5 10:49:39 43° SW 10:50:53 81° SE 10:54:54 10° NE
STARLINK-73 3.1 10:51:33 50° SW 10:52:23 85° SE 10:55:58 10° NE
Cosmos 1844 Rocket 4.1 10:47:34 10° N 10:52:46 38° ENE 10:57:56 10° SE
STARLINK-50 3.3 10:52:12 45° SW 10:53:14 81° SE 10:56:59 10° NE
STARLINK-60 3.1 10:50:20 10° NW 10:53:31 70° NE 10:56:42 10° SE
COSMOS 2428 4.5 10:49:09 10° SSE 10:53:42 25° ESE 10:58:16 10° NE
STARLINK-38 3.1 10:53:05 48° SW 10:53:59 88° SE 10:57:33 10° NE
STARLINK-68 3.2 10:53:27 46° SW 10:54:27 85° NW 10:58:04 10° NE
Meteor 1-28 Rocket 4.3 10:51:21 10° SSE 10:54:55 44° ENE 10:58:30 10° N
STARLINK-1013 3.8 10:53:44 37° SSW 10:55:10 62° SE 10:59:17 10° NE
IRS-P3 4.1 10:49:57 10° N 10:55:17 77° WNW 10:58:20 26° SSW
STARLINK-65 3.1 10:54:39 46° SW 10:55:36 89° NW 10:59:10 10° NE
STARLINK-53 3.1 10:56:16 44° WSW 10:57:18 81° NW 11:00:52 10° NE
SL-4 R/B 2.4 10:53:28 10° NW 10:58:17 82° NE 11:02:50 10° SE
STARLINK-1444 3.0 10:57:37 10° NW 10:59:50 50° NE 11:02:11 10° ESE
STARLINK-1009 3.7 10:58:30 35° SSW 11:00:07 69° SE 11:04:15 10° NE
CZ-2D R/B 4.2 10:56:13 10° NNE 11:00:25 52° E 11:03:41 16° S
STARLINK-1452 3.0 10:58:14 10° NW 11:00:28 51° NE 11:02:49 10° ESE
USA 229 DEB 3.9 10:53:56 10° NW 11:01:11 61° WSW 11:08:42 10° SSE
STARLINK-1450 2.9 10:59:05 10° NW 11:01:15 52° NE 11:03:33 10° ESE
USA 229 3.9 10:54:03 10° NW 11:01:18 61° WSW 11:08:49 10° SSE
STARLINK-1392 2.8 10:59:17 10° NW 11:01:27 52° NE 11:03:46 10° ESE
STARLINK-1415 2.8 10:59:17 10° NW 11:01:28 52° NE 11:03:46 10° ESE
STARLINK-1399 2.8 10:59:18 10° NW 11:01:29 52° NE 11:03:47 10° ESE
STARLINK-1395 2.8 10:59:19 10° NW 11:01:29 52° NE 11:03:48 10° ESE
STARLINK-1394 2.8 10:59:19 10° NW 11:01:30 52° NE 11:03:48 10° ESE
STARLINK-1393 2.8 10:59:20 10° NW 11:01:30 52° NE 11:03:48 10° ESE
STARLINK-1401 2.8 10:59:20 10° NW 11:01:30 52° NE 11:03:48 10° ESE
STARLINK-1396 2.8 10:59:20 10° NW 11:01:31 52° NE 11:03:49 10° ESE
STARLINK-1397 2.8 10:59:20 10° NW 11:01:31 52° NE 11:03:49 10° ESE
STARLINK-1453 2.8 10:59:21 10° NW 11:01:31 52° NE 11:03:49 10° ESE
STARLINK-1404 2.8 10:59:22 10° NW 11:01:33 52° NE 11:03:51 10° ESE
STARLINK-1417 2.8 10:59:23 10° NW 11:01:33 52° NE 11:03:52 10° ESE
STARLINK-1402 2.8 10:59:23 10° NW 11:01:34 52° NE 11:03:52 10° ESE
STARLINK-1413 2.8 10:59:24 10° NW 11:01:34 52° NE 11:03:53 10° ESE
STARLINK-1406 2.8 10:59:25 10° NW 11:01:36 52° NE 11:03:54 10° ESE
STARLINK-1440 2.8 10:59:27 10° NW 11:01:37 52° NE 11:03:56 10° ESE
STARLINK-1445 2.8 10:59:28 10° NW 11:01:38 52° NE 11:03:57 10° ESE
STARLINK-1443 2.8 10:59:28 10° NW 11:01:38 52° NE 11:03:57 10° ESE
STARLINK-1454 2.8 10:59:29 10° NW 11:01:39 52° NE 11:03:58 10° ESE
STARLINK-1457 2.8 10:59:30 10° NW 11:01:41 52° NE 11:03:59 10° ESE
STARLINK-1456 2.8 10:59:30 10° NW 11:01:41 53° NE 11:03:58 10° ESE
STARLINK-1414 2.9 10:59:28 10° NW 11:01:41 53° NE 11:04:01 10° ESE
STARLINK-1451 2.8 10:59:30 10° NW 11:01:41 53° NE 11:03:59 10° ESE
STARLINK-1442 2.8 10:59:32 10° NW 11:01:43 53° NE 11:04:00 10° ESE
STARLINK-1416 2.9 10:59:30 10° NW 11:01:43 53° NE 11:04:03 10° ESE
STARLINK-1408 2.9 10:59:30 10° NW 11:01:43 53° NE 11:04:03 10° ESE
STARLINK-1405 2.8 10:59:34 10° NW 11:01:45 53° NE 11:04:03 10° ESE
STARLINK-1421 2.8 10:59:35 10° NW 11:01:45 53° NE 11:04:03 10° ESE
STARLINK-1410 2.8 10:59:35 10° NW 11:01:46 53° NE 11:04:04 10° ESE
STARLINK-1400 2.8 10:59:36 10° NW 11:01:47 53° NE 11:04:04 10° ESE
STARLINK-1407 2.8 10:59:36 10° NW 11:01:47 53° NE 11:04:05 10° ESE
STARLINK-1439 2.8 10:59:37 10° NW 11:01:47 53° NE 11:04:05 10° ESE
STARLINK-1436 (VISORSAT) 2.8 10:59:35 10° NW 11:01:47 53° NE 11:04:08 10° ESE
STARLINK-1419 2.8 10:59:35 10° NW 11:01:47 53° NE 11:04:08 10° ESE
STARLINK-1409 2.8 10:59:37 10° NW 11:01:48 53° NE 11:04:06 10° ESE
STARLINK-1351 2.8 10:59:38 10° NW 11:01:49 53° NE 11:04:07 10° ESE
STARLINK-1370 2.8 10:59:38 10° NW 11:01:49 53° NE 11:04:07 10° ESE
STARLINK-1418 2.8 10:59:39 10° NW 11:01:50 53° NE 11:04:08 10° ESE
STARLINK-1398 2.9 10:59:36 10° NW 11:01:50 53° NE 11:04:11 10° ESE
STARLINK-1434 2.8 10:59:39 10° NW 11:01:50 53° NE 11:04:08 10° ESE
STARLINK-1403 2.8 10:59:40 10° NW 11:01:51 53° NE 11:04:09 10° ESE
STARLINK-1433 2.8 10:59:42 10° NW 11:01:53 53° NE 11:04:10 10° ESE
STARLINK-1422 2.8 10:59:39 10° NW 11:01:53 53° NE 11:04:13 10° ESE
STARLINK-1420 2.8 10:59:40 10° NW 11:01:54 53° NE 11:04:14 10° ESE
STARLINK-1411 2.8 10:59:43 10° NW 11:01:54 53° NE 11:04:12 10° ESE
STARLINK-1438 2.8 10:59:44 10° NW 11:01:54 53° NE 11:04:12 10° ESE
STARLINK-1460 2.8 10:59:43 10° NW 11:01:56 54° NE 11:04:17 10° ESE
STARLINK-1458 2.8 10:59:46 10° NW 11:01:59 54° NE 11:04:21 10° ESE
STARLINK-1423 2.8 10:59:48 10° NW 11:02:01 54° NE 11:04:23 10° ESE
STARLINK-1446 2.8 10:59:50 10° NW 11:02:03 54° NE 11:04:25 10° ESE
STARLINK-1437 2.8 10:59:51 10° NW 11:02:05 54° NE 11:04:26 10° ESE
STARLINK-1447 2.8 10:59:54 10° NW 11:02:08 54° NE 11:04:28 10° ESE
STARLINK-1455 2.8 10:59:54 10° NW 11:02:08 54° NE 11:04:29 10° ESE
STARLINK-1441 2.8 10:59:55 10° NW 11:02:09 54° NE 11:04:30 10° ESE
STARLINK-1448 2.8 10:59:58 10° NW 11:02:13 54° NE 11:04:34 10° ESE
CZ-2D R/B 3.6 10:58:14 10° NNW 11:02:13 23° WNW 11:04:27 17° W
STARLINK-1449 2.8 11:00:01 10° NW 11:02:14 54° NE 11:04:36 10° ESE
STARLINK-1412 2.8 11:00:09 10° NW 11:02:23 54° NE 11:04:44 10° ESE
NOSS 3-1 (C) 4.2 10:54:52 10° NW 11:02:33 57° WSW 11:11:07 10° SSE
STARLINK-1015 3.6 11:03:17 32° SW 11:05:06 77° SE 11:09:15 10° NE
Cosmos 1606 4.5 11:03:11 10° NNE 11:06:35 31° ENE 11:09:58 10° SE
Cosmos 1892 3.7 11:06:57 26° WSW 11:07:51 29° WNW 11:11:12 10° NNW
ERS-2 2.8 11:04:30 10° SSE 11:08:04 55° ENE 11:11:40 10° N
SL-08 R/B 3.1 11:04:16 13° S 11:08:27 79° WSW 11:13:05 10° NNW
STARLINK-1016 3.5 11:08:03 30° SW 11:10:03 85° SE 11:14:13 10° NE
Cosmos 1076 Rocket 4.5 11:08:45 25° WSW 11:10:20 33° WNW 11:14:17 10° NNW
NOSS 3-1 (A) 4.1 11:02:36 10° NW 11:10:26 75° WSW 11:19:14 10° SSE
H-2A R/B 3.0 11:06:24 10° SSE 11:10:40 51° ENE 11:15:02 10° N
Cosmos 1766 Rocket 3.9 11:07:18 15° S 11:10:46 64° E 11:15:03 10° NNE
Okean 3 Rocket 3.7 11:08:07 18° S 11:11:30 79° E 11:16:04 10° N
CZ-2C R/B 3.9 11:08:47 10° NNE 11:12:22 40° E 11:15:56 10° S
Cosmos 2341 Rocket 4.2 11:08:23 21° SSW 11:12:41 59° W 11:18:56 10° N
Cosmos 773 Rocket 4.0 11:09:51 23° SSW 11:13:13 76° WNW 11:18:32 10° NNE
Cosmos 2360 Rocket 2.3 11:09:47 23° SW 11:13:17 66° WNW 11:18:54 10° NNE
Cosmos 2151 2.9 11:11:12 23° SSW 11:13:51 75° W 11:18:09 10° N
STARLINK-24 3.8 11:12:18 25° WSW 11:14:27 62° NW 11:18:26 10° NE
STARLINK-1008 3.5 11:12:51 27° SW 11:15:02 88° NW 11:19:13 10° NE
CZ-3 R/B 4.4 10:46:20 17° SW 11:19:57 49° S 11:31:10 10° ESE
STARLINK-1014 3.6 11:17:40 24° SW 11:20:02 80° NW 11:24:10 10° NE
STARLINK-25 3.7 11:20:22 22° WSW 11:22:14 47° NW 11:25:33 10° NE
Lacrosse 5 rocket 2.8 11:21:10 13° S 11:24:07 27° SE 11:27:29 10° ENE
Cosmos 1959 Rocket 4.4 11:18:48 13° S 11:24:21 79° W 11:30:28 10° N
Cosmos 2333 Rocket 2.7 11:19:23 11° S 11:24:36 57° ESE 11:30:09 10° NNE
STARLINK-1025 3.7 11:22:25 22° WSW 11:25:01 73° NW 11:29:10 10° NE
STARLINK-29 3.3 11:22:44 10° NW 11:25:54 65° NE 11:29:02 10° ESE
Shenzhou-11 Module 3.2 11:25:46 10° WNW 11:28:00 31° N 11:30:16 10° ENE
STARLINK-1017 3.8 11:27:11 20° WSW 11:29:59 66° NW 11:34:07 10° NE
Cosmos 2322 3.7 11:25:56 15° SSW 11:30:41 88° WNW 11:36:27 10° NNE
Cosmos 2219 Rocket 2.6 11:25:54 10° S 11:31:19 60° ESE 11:36:50 10° NNE
SL-8 Rocket 4.3 11:29:37 15° SSW 11:34:49 53° W 11:40:56 10° N
STARLINK-1023 3.9 11:31:57 18° WSW 11:34:57 60° NW 11:39:04 10° NE
STARLINK-81 4.2 11:33:57 15° W 11:36:35 39° NW 11:40:00 10° NE
Cosmos 2218 Rocket 4.2 11:32:00 12° SSW 11:37:50 61° W 11:44:12 10° N
STARLINK-54 4.4 11:35:43 14° W 11:38:28 35° NNW 11:41:49 10° NE
STARLINK-77 4.3 11:37:09 14° W 11:39:55 37° NW 11:43:19 10° NE
STARLINK-1007 4.0 11:36:47 16° WSW 11:39:58 55° NW 11:44:04 10° NE
Cosmos 2333 4.2 11:35:10 14° SSW 11:40:04 78° WNW 11:45:43 10° NNE
CZ-2C R/B 4.1 11:36:02 10° NNE 11:40:43 33° E 11:45:20 10° SSE
Cosmos 2263 Rocket 3.7 11:38:11 10° WNW 11:41:18 15° W 11:43:07 13° WSW
Cosmos 1408 4.3 11:40:31 14° WSW 11:42:10 18° WNW 11:44:49 10° NNW
ADEOS II 3.4 11:39:12 10° NNW 11:43:25 25° WNW 11:47:09 12° WSW
ATLAS 5 CENTAUR R/B 3.1 11:40:06 10° S 11:43:34 28° ESE 11:47:17 10° NE
CZ-4B R/B 4.0 11:41:18 10° ESE 11:43:45 22° ENE 11:46:14 10° NNE
Cosmos 1825 3.3 11:42:06 16° SW 11:44:19 27° WNW 11:47:33 10° NNW
STARLINK-79 4.5 11:41:51 12° W 11:44:50 34° NNW 11:48:10 10° NE
STARLINK-1048 4.2 11:41:33 14° WSW 11:44:57 50° NW 11:49:00 10° NE
IDEFIX/ARIANE 42P 2.6 11:43:11 10° N 11:48:26 70° WNW 11:53:38 10° SSW
STARLINK-1049 4.3 11:46:20 12° WSW 11:49:58 46° NW 11:53:58 10° NE
STARLINK-1051 4.4 11:51:06 11° WSW 11:54:56 42° NW 11:58:53 10° NE
